Madrid, Spain

2:03 AM CET on February 20, 2017 (GMT +0100)
Madrid-Barajas Airport

Weather History for LEMD - February, 2012

Change the Weather History Date:

Thursday, February 2, 2012

  Actual Average Record
Temperature  
Mean Temperature 34 °F -  
Max Temperature 38 °F 53 °F 60 °F (2000)
Min Temperature 28 °F 33 °F 26 °F (2002)
Degree Days  
Heating Degree Days 31    
Moisture  
Dew Point 18 °F    
Average Humidity 53    
Maximum Humidity 93    
Minimum Humidity 22    
Precipitation  
Precipitation 0.12 in 0.06 in - ()
Sea Level Pressure  
Sea Level Pressure 29.94 in    
Wind  
Wind Speed 14 mph ()    
Max Wind Speed 31 mph    
Max Gust Speed 43 mph    
Visibility 7.2 miles    
Events Rain    
Averages and records for this station are not official NWS values.
T = Trace of Precipitation, MM = Missing Value Source: Averaged Metar Reports

Daily Weather History Graph

Daily Weather History Graph

Search for Another Location

Airport or City:

Trip Planner

Search our weather history database for the weather conditions in past years. The results will help you decide how hot, cold, wet, or windy it might be!

Date:

Astronomy

Feb. 02, 2012 Rise Set
Actual Time 8:23 AM CET 6:32 PM CET
Civil Twilight 7:54 AM CET 7:01 PM CET
Nautical Twilight 7:21 AM CET 7:34 PM CET
Astronomical Twilight 6:49 AM CET 8:06 PM CET
Moon 1:32 PM CET (2/2) 3:52 AM CET (2/2)
Length of Visible Light 11h 07m
Length of Day
10h 09m
Waxing Gibbous, 71% of the Moon is Illuminated
Feb 2
Waxing Gibbous
Feb 7
Full
Feb 14
Last Quarter
Feb 21
New
Mar 1
First Quarter

Hourly Weather History & Observations

Time (CET) Temp. Windchill Dew Point Humidity Pressure Visibility Wind Dir Wind Speed Gust Speed Precip Events Conditions
12:00 AM 41.0 °F 37.1 °F 39.2 °F 93% 29.86 in 5.0 mi NNW 5.8 mph - N/A Rain Rain
12:30 AM 41.0 °F 38.0 °F 37.4 °F 87% 29.86 in 6.2 mi North 4.6 mph - N/A Rain Light Rain
1:00 AM 40 °F - 36 °F 82% 29.92 in 6 mi Calm Calm - - Rain Light Drizzle
1:00 AM 41.0 °F - 37.4 °F 87% 29.86 in 6.2 mi Calm Calm - N/A Rain Light Rain
1:30 AM 39.2 °F 30.8 °F 33.8 °F 81% 29.86 in 6.2 mi North 15.0 mph - N/A   Scattered Clouds
2:00 AM 35.6 °F 24.5 °F 28.4 °F 75% 29.86 in 6.2 mi North 20.7 mph - N/A   Scattered Clouds
2:30 AM 35.6 °F 24.5 °F 26.6 °F 70% 29.86 in 6.2 mi NNE 20.7 mph - N/A   Scattered Clouds
3:00 AM 33.8 °F 22.8 °F 24.8 °F 70% 29.86 in 6.2 mi North 18.4 mph 31.1 mph N/A   Scattered Clouds
3:30 AM 33.8 °F 22.8 °F 23.0 °F 65% 29.86 in 6.2 mi NNE 18.4 mph - N/A   Partly Cloudy
4:00 AM 33.8 °F 23.5 °F 23.0 °F 65% 29.86 in 6.2 mi North 16.1 mph - N/A   Partly Cloudy
4:30 AM 33.8 °F 22.5 °F 21.2 °F 60% 29.86 in 6.2 mi NNE 19.6 mph - N/A   Partly Cloudy
5:00 AM 32.0 °F 23.0 °F 23.0 °F 69% 29.86 in 6.2 mi NNE 11.5 mph - N/A   Partly Cloudy
5:30 AM 33.8 °F 24.8 °F 19.4 °F 56% 29.86 in - NNE 12.7 mph - N/A   Clear
6:00 AM 33.8 °F 24.3 °F 19.4 °F 56% 29.86 in - NNE 13.8 mph - N/A   Clear
6:30 AM 32.0 °F 22.1 °F 19.4 °F 60% 29.86 in - NNE 13.8 mph - N/A   Clear
7:00 AM 32 °F - 18 °F 44% 29.96 in 17 mi NNE 13.8 mph - -   Scattered Clouds
7:00 AM 32.0 °F 22.5 °F 19.4 °F 60% 29.86 in - NNE 12.7 mph - N/A   Clear
7:30 AM 32.0 °F 22.1 °F 19.4 °F 60% 29.86 in - North 13.8 mph - N/A   Clear
8:00 AM 32.0 °F 23.0 °F 19.4 °F 60% 29.89 in - NNE 11.5 mph - N/A   Clear
8:30 AM 32.0 °F 22.5 °F 19.4 °F 60% 29.89 in - NNE 12.7 mph - N/A   Clear
9:00 AM 32.0 °F 22.5 °F 19.4 °F 60% 29.89 in - NNE 12.7 mph - N/A   Clear
9:30 AM 32.0 °F 22.5 °F 17.6 °F 55% 29.92 in - NNE 12.7 mph - N/A   Clear
10:00 AM 33.8 °F 23.5 °F 19.4 °F 56% 29.92 in - NNE 16.1 mph - N/A   Clear
10:30 AM 33.8 °F 22.2 °F 17.6 °F 52% 29.92 in - NNE 20.7 mph - N/A   Clear
11:00 AM 35.6 °F 26.6 °F 17.6 °F 48% 29.92 in - NNE 13.8 mph - N/A   Clear
11:30 AM 35.6 °F 23.4 °F 15.8 °F 44% 29.92 in 6.2 mi North 25.3 mph - N/A   Partly Cloudy
12:00 PM 37.4 °F 28.2 °F 15.8 °F 41% 29.95 in 6.2 mi North 16.1 mph 29.9 mph N/A   Partly Cloudy
12:30 PM 37.4 °F 26.1 °F 15.8 °F 41% 29.95 in 6.2 mi North 24.2 mph - N/A   Partly Cloudy
1:00 PM 38 °F - 13 °F 22% 30.01 in 15 mi North 23.0 mph - -   Scattered Clouds
1:00 PM 37.4 °F 25.6 °F 15.8 °F 41% 29.95 in 6.2 mi North 26.5 mph - N/A   Partly Cloudy
1:30 PM 37.4 °F 25.2 °F 14.0 °F 38% 29.92 in 6.2 mi North 28.8 mph 40.3 mph N/A   Partly Cloudy
2:00 PM 37.4 °F 24.8 °F 12.2 °F 36% 29.92 in 6.2 mi North 31.1 mph 42.6 mph N/A   Partly Cloudy
2:30 PM 37.4 °F 24.8 °F 14.0 °F 38% 29.95 in 6.2 mi North 31.1 mph 42.6 mph N/A   Partly Cloudy
3:00 PM 37.4 °F 25.6 °F 14.0 °F 38% 29.95 in 6.2 mi North 26.5 mph 39.1 mph N/A   Partly Cloudy
3:30 PM 37.4 °F 26.4 °F 14.0 °F 38% 29.95 in 6.2 mi North 23.0 mph 34.5 mph N/A   Partly Cloudy
4:00 PM 37.4 °F 27.5 °F 14.0 °F 38% 29.95 in 6.2 mi North 18.4 mph - N/A   Partly Cloudy
4:30 PM 37.4 °F 25.9 °F 10.4 °F 33% 29.95 in 6.2 mi North 25.3 mph 38.0 mph N/A   Partly Cloudy
5:00 PM 35.6 °F 22.7 °F 10.4 °F 35% 29.95 in 6.2 mi North 28.8 mph 40.3 mph N/A   Partly Cloudy
5:30 PM 35.6 °F 24.8 °F 12.2 °F 38% 29.98 in 6.2 mi North 19.6 mph - N/A   Partly Cloudy
6:00 PM 33.8 °F 22.8 °F 12.2 °F 41% 29.98 in 6.2 mi North 18.4 mph - N/A   Partly Cloudy
6:30 PM 32.0 °F 20.8 °F 12.2 °F 44% 29.98 in 6.2 mi North 17.3 mph - N/A   Partly Cloudy
7:00 PM 32 °F - 11 °F 27% 30.10 in 19 mi North 23.0 mph - -   Scattered Clouds
7:00 PM 32.0 °F 20.1 °F 10.4 °F 41% 29.98 in 6.2 mi North 19.6 mph - N/A   Partly Cloudy
7:30 PM 32.0 °F 20.5 °F 12.2 °F 44% 30.01 in 6.2 mi North 18.4 mph - N/A   Partly Cloudy
8:00 PM 32.0 °F 18.6 °F 12.2 °F 44% 30.01 in - North 25.3 mph 36.8 mph N/A   Clear
8:30 PM 30.2 °F 17.1 °F 12.2 °F 47% 30.04 in - North 21.9 mph - N/A   Clear
9:00 PM 30.2 °F 19.3 °F 12.2 °F 47% 30.06 in - North 15.0 mph - N/A   Clear
9:30 PM 30.2 °F 18.5 °F 14.0 °F 51% 30.06 in - North 17.3 mph - N/A   Clear
10:00 PM 30.2 °F 19.3 °F 14.0 °F 51% 30.06 in - North 15.0 mph - N/A   Clear
10:30 PM 30.2 °F 19.8 °F 14.0 °F 51% 30.06 in - North 13.8 mph - N/A   Clear
11:00 PM 30.2 °F 19.8 °F 12.2 °F 47% 30.06 in - North 13.8 mph 29.9 mph N/A   Clear
11:30 PM 28.4 °F 16.2 °F 14.0 °F 55% 30.09 in - North 17.3 mph - N/A   Clear